DECAYED

STARLINK-2146, 47735 (Decayed)

Orbit data source: Space-Track

STARLINK-2146, 47735 was a payload satellite owned by SpaceX/Seattle (US) in LEO that was launched on Thu, 04 Mar 2021 UTC via an FALCON 9 launch vehicle from the Air Force Eastern Test Range (AFETR). Payload-class satellites include a variety of spacecraft equipped with specific instruments for various scientific and technological missions. These include communications satellites like Starlink; space stations such as the ISS; scientific satellites like the Hubble; Earth observation satellites from companies like Planet Labs, Umbra, and HawkEye 360; GPS; miniature CubeSats for education and research; and military/defense satellites.

Not visible in the next 10 days
Identifier
47735, 2021-017P
Orbit
Decayed
Country
Flag of USUS
Related business
Manufacturer
SpaceX/Seattle
Mission
Decayed Commercial Communications
Bus & Motor
STARLINK, Unknown motor
Mass
260 kg wet, ~248 kg dry
Launch date (UTC)
2021-03-04 (5 years ago)
Launch vehicle
FALCON 9
Launch site
Air Force Eastern Test Range (AFETR)
Object type
Payload
Rocket body
Debris
Shape & HBR
Box + 1 Pan, 10.1 m
Radar Cross Section
13.562 m², Large (>1 m²)

Expand to show TLE details & history
Last TLE update: 1 year ago

TLE from 1 year ago
0 STARLINK-2146
1 47735U 21017P   25206.95337605  .12005230  12496-4  67831-3 0  9997
2 47735  53.0334  27.4502 0010027 302.6840 181.3221 16.41577059244619
Epoch: 2025-07-25T22:52Z
TLE epoch observation values (Epoch: 2025-07-25T22:52:51.690Z)
Latitude
41.61985°
Longitude
-121.33266°
Altitude
172.064 km
Speed
7.805 km/s
True Right ascension
11h 03m 07s
True Declination
41° 26' 02"
Sunlit
Object was in daylight at epoch
Visualization orbit readout
Latitude
Unknown
Longitude
Unknown
Altitude
Unknown
Speed
Unknown
Apparent Right ascension
Unknown
Apparent Declination
Unknown
Sunlit
N/A
Visualization observer readout
Local Sidereal Time
08:57:56
Azimuth
Unknown
Elevation
Unknown
Doppler factor
Unknown
Orbital elements
Apogee altitude
168.458 km
Perigee altitude
155.343 km
Semi-major axis
6,540.037 km
Eccentricity
0.001
Inclination
53.0334°
RAAN
27.4502°
Arg. of periapsis
302.684°
True anomaly
181.31945°
Mean anomaly
181.3221°
Eccentric anomaly
181.32078°
Mean motion
4.10367 °/min
Orbital period
87.73 mins
BSTAR
0.00067831
Loading maneuver chart data...
Computing Atmospheric mass density...

Documentation

Showing up to 5 results
|